EW0345 Weather Reports


time (UTC)temp
C
wind
direction
speed
KPH
gust
KPH
rain 1hr
cm
rain 24hr
cm
rain mn
cm
humidity
%
barometer
mb
20260507050043 10 0.0 0.0 0.00 0.00 0.00 94 1007.9
20260507044546 10 0.0 0.0 0.00 0.03 0.00 94 1007.9
20260507043041 10 0.0 0.0 0.00 0.03 0.00 95 1008.0
20260507041539 10 0.0 0.0 0.00 0.03 0.00 95 1008.1
20260507040049 10 0.0 0.0 0.00 0.03 0.00 94 1008.0
20260507034546 10 0.0 0.0 0.00 0.03 0.03 94 1007.9
20260507033041 10 0.0 0.0 0.00 0.03 0.03 93 1007.8
20260507031542 11 0.0 0.0 0.00 0.03 0.03 92 1007.8
20260507030042 11 0.0 0.0 0.00 0.03 0.03 92 1007.7
20260507024539 12 0.0 0.0 0.00 0.03 0.03 93 1007.5
20260507023043 13 0.0 0.0 0.00 0.03 0.03 94 1007.3
20260507021534 13 0.0 0.0 0.00 0.03 0.03 94 1007.0
20260507020050 14 0.0 0.0 0.00 0.03 0.03 94 1006.7
20260507014553 15 0.0 0.0 0.00 0.03 0.03 95 1006.3
20260507013037 15 0.0 0.0 0.00 0.03 0.03 95 1006.1
20260507011539 15 0.0 0.0 0.00 0.03 0.03 95 1006.1
20260507010036 15 0.0 0.0 0.00 0.03 0.03 95 1006.1
20260507004544 15 0.0 0.0 0.00 0.03 0.03 95 1006.0
20260507003042 15 0.0 0.0 0.00 0.03 0.03 95 1005.9
20260507001536 15 0.0 0.0 0.00 0.03 0.03 95 1005.9
20260507000046 15 0.0 0.0 0.00 0.03 0.03 95 1005.8
20260506234543 15 0.0 0.0 0.00 0.03 0.03 95 1005.6
20260506233041 15 0.0 0.0 0.00 0.03 0.03 95 1005.6
20260506231542 15 0.0 0.0 0.00 0.03 0.03 95 1005.7
20260506230040 15 0.0 0.0 0.00 0.03 0.03 95 1005.8
20260506224538 15 0.0 0.0 0.00 0.03 0.03 95 1005.9
20260506223046 15 0.0 0.0 0.00 0.03 0.03 94 1006.0
20260506221544 15 0.0 0.0 0.00 0.03 0.03 94 1006.1
20260506220043 15 0.0 0.0 0.00 0.03 0.03 94 1006.2
20260506214540 15 0.0 0.0 0.00 0.03 0.03 94 1006.1
20260506213039 16 0.0 0.0 0.00 0.03 0.03 94 1006.2
20260506211536 16 0.0 0.0 0.00 0.03 0.03 94 1006.2
20260506210049 16 0.0 0.0 0.00 0.03 0.03 94 1006.2
20260506204542 16 0.0 0.0 0.00 0.03 0.03 94 1006.4
20260506203048 16 0.0 0.0 0.00 0.03 0.03 93 1006.5
20260506201545 16 0.0 0.0 0.00 0.03 0.03 93 1006.7
20260506200038 16 0.0 0.0 0.00 0.03 0.03 93 1006.8
20260506194540 16 0.0 0.0 0.00 0.03 0.03 93 1007.0
20260506193045 16 0.0 0.0 0.00 0.03 0.03 92 1007.0
20260506191543 17 0.0 0.0 0.00 0.03 0.03 92 1006.7
20260506190041 17 0.0 0.0 0.00 0.03 0.03 91 1006.9
20260506184548 17 0.0 0.0 0.00 0.03 0.03 91 1007.4
20260506183046 17 0.0 0.0 0.00 0.03 0.03 89 1007.7
20260506181542 17 0.0 0.0 0.00 0.03 0.03 86 1007.7
20260506180043 18 0.0 0.0 0.00 0.03 0.03 81 1008.1
20260506174541 20 0.0 0.0 0.00 0.03 0.03 74 1008.2
20260506173051 20 0.0 0.0 0.00 0.03 0.03 66 1007.7
20260506171549 21 0.0 0.0 0.00 0.03 0.03 63 1007.6
20260506170034 21 0.0 0.0 0.00 0.03 0.03 66 1007.6
20260506164543 21 0.0 0.0 0.00 0.03 0.03 65 1007.6
20260506163058 21 0.0 0.0 0.00 0.03 0.03 66 1007.8
20260506161544 21 0.0 0.0 0.00 0.03 0.03 67 1007.9
20260506160042 20 0.0 0.0 0.00 0.03 0.03 67 1008.3
20260506154540 20 0.0 0.0 0.00 0.03 0.03 68 1008.6
20260506153039 20 0.0 0.0 0.00 0.03 0.03 68 1008.6
20260506151535 20 0.0 0.0 0.00 0.03 0.03 69 1008.9
20260506150041 20 0.0 0.0 0.00 0.03 0.03 70 1008.9
20260506144540 20 0.0 0.0 0.00 0.03 0.03 69 1009.0
20260506143038 20 0.0 0.0 0.00 0.03 0.03 71 1008.9
20260506141549 18 0.0 0.0 0.00 0.03 0.03 74 1008.9
20260506140053 18 0.0 0.0 0.00 0.03 0.03 75 1008.7
20260506134542 17 0.0 0.0 0.00 0.03 0.03 77 1008.9
20260506133040 17 0.0 0.0 0.00 0.03 0.03 78 1009.2
20260506131540 17 0.0 0.0 0.00 0.03 0.03 78 1009.2
20260506130042 17 0.0 0.0 0.00 0.03 0.03 78 1009.3
20260506124544 16 0.0 0.0 0.00 0.03 0.03 78 1009.4
20260506123043 16 0.0 0.0 0.00 0.03 0.03 79 1009.3
20260506121543 16 0.0 0.0 0.00 0.03 0.03 79 1009.3
20260506120036 16 0.0 0.0 0.00 0.03 0.03 79 1009.6
20260506114551 16 0.0 0.0 0.00 0.03 0.03 79 1009.8
20260506113044 15 0.0 0.0 0.00 0.03 0.03 80 1009.9
20260506111544 15 0.0 0.0 0.00 0.03 0.03 80 1010.0
20260506110041 15 0.0 0.0 0.00 0.03 0.03 81 1009.9
20260506104543 15 0.0 0.0 0.00 0.03 0.03 81 1010.1
20260506103039 15 0.0 0.0 0.00 0.03 0.03 81 1009.9
20260506101545 15 0.0 0.0 0.00 0.03 0.03 81 1009.8
20260506100047 15 0.0 0.0 0.00 0.03 0.03 81 1009.7
20260506094546 14 0.0 0.0 0.00 0.03 0.03 81 1009.9
20260506093101 14 0.0 0.0 0.00 0.03 0.03 80 1009.6
20260506091545 14 0.0 0.0 0.00 0.03 0.03 79 1009.8
20260506090039 14 0.0 0.0 0.00 0.03 0.03 78 1009.5
20260506084536 15 0.0 0.0 0.00 0.03 0.03 76 1009.7
20260506083037 15 0.0 0.0 0.00 0.03 0.03 75 1009.6
20260506081534 15 0.0 0.0 0.00 0.03 0.03 74 1009.6
20260506073035 15 0.0 0.0 0.00 0.03 0.03 73 1009.7
20260506071546 15 0.0 0.0 0.00 0.03 0.03 72 1009.6
20260506061553 16 0.0 0.0 0.00 0.03 0.03 69 1009.2